Regional Weather Roundup
Issued by NWS

Home | Current Version | Previous Version | Text Only | Print | Product List | Glossary On
Versions: 1 2 3 4 5 6 7 8 9 10 11 12 13 14 15 16 17 18 19 20 21 22 23 24 25 26 27 28 29 30 31 32 33 34 35 36 37 38 39 40 41 42 43 44 45 46 47 48 49 50
000
ASUS44 KBMX 201110
RWRAL

ALABAMA REGIONAL WEATHER ROUNDUP
NATIONAL WEATHER SERVICE BIRMINGHAM AL
500 AM CST FRI JAN 20 2017

NOTE: "FAIR" INDICATES FEW OR NO CLOUDS BELOW 12,000 FEET
WITH NO SIGNIFICANT WEATHER AND/OR OBSTRUCTIONS TO VISIBILITY.

THE REMARK "TC" DENOTES TEMPERATURE IN DEGREES CELSIUS.

ALZ001>011-014-016>018-020-201200-
NORTH ALABAMA

CITY           SKY/WX    TMP DP  RH WIND       PRES   REMARKS
MUSCLE SHOALS  CLOUDY    55  53  93 CALM      29.78R
HUNTSVILLE     CLOUDY    60  58  92 W3        29.79R
DECATUR        CLOUDY    59  58  96 SW7       29.79R
HALEYVILLE     CLOUDY    57  55  93 SW7       29.80S
GADSDEN        PTCLDY    59  59 100 CALM      29.81R
$$

ALZ012-013-022-023-030>036-040>044-201200-
WEST CENTRAL ALABAMA

CITY           SKY/WX    TMP DP  RH WIND       PRES   REMARKS
TUSCALOOSA     MOCLDY    59  59 100 S3        29.80R
$$

ALZ015-024>027-033>036-040>044-201200-
CENTRAL ALABAMA

CITY           SKY/WX    TMP DP  RH WIND       PRES   REMARKS
BIRMINGHAM     MOCLDY    61  59  93 SW7       29.83R
MONTGOMERY     CLOUDY    65  60  84 S5        29.82S
SHELBY CO ARPT MOCLDY    62  61  96 SW5       29.81S
MAXWELL AFB    CLOUDY    64  63  97 SW5       29.82R
GREENVILLE     CLOUDY    64  60  87 S6        29.83R
$$

ALZ019-021-028-029-037-038-045>048-201200-
EAST CENTRAL ALABAMA

CITY           SKY/WX    TMP DP  RH WIND       PRES   REMARKS
ANNISTON       CLOUDY    63  60  90 SW9       29.81R
ALEXANDER CITY CLOUDY    65  63  93 SW6       29.83R
AUBURN         CLOUDY    63  62  97 SW10      29.85R
$$

ALZ051>064-201200-
SOUTHWEST ALABAMA

CITY           SKY/WX    TMP DP  RH WIND       PRES   REMARKS
MOBILE         CLEAR     62  60  93 S6        29.83S
BROOKLEY FIELD CLOUDY    65  65 100 S3        29.84S FOG
EVERGREEN      CLOUDY    63  61  93 S10       29.84S
$$

ALZ049-050-065>069-201200-
SOUTHEAST ALABAMA

CITY           SKY/WX    TMP DP  RH WIND       PRES   REMARKS
DOTHAN         CLOUDY    63  63 100 SW13      29.89R
OZARK          CLOUDY    64  63  94 SW8       29.85R
TROY           CLOUDY    64  63  96 SW7       29.85R
EUFAULA        CLOUDY    66  62  87 VRB6      29.83R
$$



USA.gov is the U.S. government's official web portal to all federal, state and local government web resources and services.